This is the latest recevied weather packets stored in our database for station/object WW3TRG. If no packets are shown the sender has not sent any weather packets the latest 10 day(s).
| Time | Temp. | Humidity | Pressure | Rain* | Wind** | Luminosity | Snow |
|---|---|---|---|---|---|---|---|
| 1778228420 | 5° C | 99% | 1011.6 hPa | 0 mm | - | 0 W/m² | - |
| 1778228118 | 5° C | 99% | 1011.9 hPa | 0 mm | - | 0 W/m² | - |
| 1778227814 | 5° C | 99% | 1011.9 hPa | 0 mm | - | 0 W/m² | - |
| 1778227512 | 5° C | 99% | 1011.5 hPa | 0 mm | - | 0 W/m² | - |
| 1778227209 | 5.56° C | 99% | 1011.7 hPa | 0 mm | - | 0 W/m² | - |
| 1778226905 | 5.56° C | 99% | 1011.5 hPa | 0 mm | - | 0 W/m² | - |
| 1778226603 | 5.56° C | 99% | 1011.4 hPa | 0 mm | - | 0 W/m² | - |
| 1778226301 | 5.56° C | 99% | 1011.5 hPa | 0 mm | - | 0 W/m² | - |
| 1778225997 | 5.56° C | 99% | 1011.4 hPa | 0 mm | - | 0 W/m² | - |
| 1778225694 | 5.56° C | 99% | 1011.5 hPa | 0 mm | - | 0 W/m² | - |
| 1778225391 | 5.56° C | 99% | 1011.3 hPa | 0 mm | - | 0 W/m² | - |
| 1778225082 | 5.56° C | 99% | 1011.5 hPa | 0 mm | - | 0 W/m² | - |
| 1778224780 | 6.11° C | 98% | 1011.2 hPa | 0 mm | - | 0 W/m² | - |
| 1778224478 | 5.56° C | 98% | 1011.4 hPa | 0 mm | - | 0 W/m² | - |
| 1778224175 | 6.11° C | 98% | 1011.1 hPa | 0 mm | - | 0 W/m² | - |
| 1778223873 | 6.11° C | 97% | 1011 hPa | 0 mm | - | 0 W/m² | - |
| 1778223570 | 6.67° C | 97% | 1011.2 hPa | 0 mm | - | 0 W/m² | - |
| 1778223268 | 6.67° C | 97% | 1010.9 hPa | 0 mm | - | 0 W/m² | - |
| 1778222966 | 6.67° C | 96% | 1011.3 hPa | 0 mm | - | 0 W/m² | - |
| 1778222663 | 7.22° C | 95% | 1011.1 hPa | 0 mm | - | 0 W/m² | - |
| 1778222361 | 7.22° C | 94% | 1010.9 hPa | 0 mm | - | 0 W/m² | - |
| 1778222058 | 7.78° C | 93% | 1010.6 hPa | 0 mm | - | 0 W/m² | - |
| 1778221755 | 7.78° C | 93% | 1010.9 hPa | 0 mm | - | 0 W/m² | - |
| 1778221453 | 8.33° C | 90% | 1010.8 hPa | 0 mm | - | 0 W/m² | - |
| 1778221149 | 8.33° C | 88% | 1010.8 hPa | 0.51 mm | - | 0 W/m² | - |
* Rain latest hour (hover to see other rain measurements)
** Current wind speed in m/s (hover to see current wind gust speed)